Flag for U.S.A. Weather past 2 weeks in Kodiak, Alaska, U.S.A.

Now
45 °F

Overcast.


Feels Like: 43 °F
Forecast: 38 / 47 °F
Wind: 5 mph from Southeast

Location: Kodiak Weather Reporting Station

Current Time: May 3, 2015 at 10:17:58 PM

Latest Report: May 3, 2015 at 10:00 PM


Visibility: 10 mi

Pressure: 30.11 "Hg

Humidity: 90%

Dew point: 42 °F

Location of KodiakLocation

Historic Weather in Kodiak — Graph

°F

Kodiak temperature yesterday

Maximum temperature yesterday: 46 °F (at 2:53 PM)
Minimum temperature yesterday: 33 °F (at 1:53 AM)
Average temperature yesterday: 41 °F

Past Weeks' High & Low Weather Summary

 TemperatureHumidityPressure
High57 °F (Apr 28, 3:53 PM)100% (May 1, 5:53 AM)30.16 "Hg (May 1, 5:53 AM)
Low32 °F (Apr 20, 1:00 AM)34% (Apr 20, 2:53 PM)29.25 "Hg (Apr 19, 5:53 AM)
Average42 °F80%29.74 "Hg
* Reported Apr 18 8:53 PM — May 3 8:53 PM, Kodiak, Weather by CustomWeather, © 2015

Note: Actual official high and low records may vary slightly from our data, if they occured in-between our weather recording intervals... More about our weather records

Advertising

Kodiak weather history for previous 24 hours

 ConditionsComfort  
Time TempWeatherWind HumidityBarometerVisibility
8:53 PM
Sun, May 3
45 °FPartly sunny.5 mph86%30.11 "Hg10 mi
7:53 PM45 °FMostly cloudy.5 mph86%30.12 "Hg10 mi
6:53 PM46 °FBroken clouds.6 mph77%30.13 "Hg10 mi
5:53 PM47 °FBroken clouds.8 mph71%30.13 "Hg10 mi
4:53 PM48 °FBroken clouds.9 mph74%30.14 "Hg10 mi
3:53 PM47 °FBroken clouds.7 mph74%30.14 "Hg10 mi
2:53 PM47 °FCloudy.12 mph77%30.15 "Hg10 mi
1:53 PM47 °FCloudy.8 mph83%30.15 "Hg10 mi
12:53 PM47 °FCloudy.5 mph83%30.16 "Hg10 mi
11:53 AM43 °FLight rain. Cloudy.3 mph89%30.15 "Hg10 mi
10:53 AM46 °FMore clouds than sun.8 mph79%30.14 "Hg10 mi
9:53 AM45 °FMore clouds than sun.8 mph80%30.14 "Hg10 mi
8:53 AM45 °FCloudy.14 mph80%30.13 "Hg10 mi
7:53 AM44 °FCloudy.13 mph79%30.13 "Hg10 mi
6:53 AM44 °FOvercast.12 mph82%30.12 "Hg10 mi
5:53 AM44 °FMostly cloudy.10 mph85%30.11 "Hg10 mi
4:53 AM44 °FOvercast.14 mph85%30.11 "Hg10 mi
3:53 AM43 °FMostly cloudy.10 mph89%30.11 "Hg10 mi
2:53 AM44 °FOvercast.10 mph85%30.11 "Hg10 mi
1:53 AM44 °FMostly cloudy.12 mph89%30.11 "Hg10 mi
12:53 AM44 °FMostly cloudy.12 mph85%30.11 "Hg10 mi
11:53 PM
Sat, May 2
44 °FMostly cloudy.12 mph85%30.11 "Hg10 mi
10:53 PM44 °FOvercast.12 mph85%30.11 "Hg10 mi
Weather by CustomWeather, © 2015

See weather overviewHow to use our weather pages